1497801600.65,62262,17.38,74476.3,7.65,-29.13,-29.07,0,*7E
1497801601.89,62263,17.38,74476.8,7.65,-29.29,-29.07,0,*76
1497801603.16,62264,17.38,74478.5,7.65,-28.79,-28.59,0,*7F
1497801604.39,62265,17.38,74474.0,7.67,-28.85,-28.59,0,*7F
1497801605.61,62266,17.38,74476.5,7.67,-28.75,-28.69,0,*70
1497801606.86,62267,17.38,74474.3,7.67,-28.91,-28.75,0,*76
1497801608.1,62268,17.38,74474.5,7.67,-28.91,-28.75,0,*79
1497801609.36,62269,17.38,74476.0,7.71,-29.35,-29.17,0,*75
1497801610.56,62270,17.38,74478.0,7.67,-29.07,-28.85,0,*71
1497801611.81,62271,17.38,74474.0,7.73,-29.57,-29.51,0,*78
1497801613.06,62272,17.38,74476.3,7.71,-29.39,-29.17,0,*73
1497801614.28,62273,17.38,74476.3,7.67,-28.85,-28.75,0,*76
1497801615.48,62274,17.38,74476.0,7.71,-28.85,-28.69,0,*7B
1497801616.71,62275,17.38,74476.3,7.71,-28.63,-28.53,0,*7B
1497801617.93,62276,17.38,74480.3,7.71,-28.97,-28.79,0,*7B
1497801619.13,62277,17.38,74480.5,7.71,-28.85,-28.69,0,*78
1497801620.35,62278,17.38,74482.3,7.67,-29.07,-29.01,0,*74
1497801621.6,62279,17.38,74482.0,7.71,-28.79,-28.63,0,*7F
1497801622.83,62280,17.38,74480.3,7.71,-28.53,-28.47,0,*77
1497801624.07,62281,17.38,74480.8,7.73,-28.63,-28.37,0,*70
1497801625.32,62282,17.38,74480.3,7.73,-28.79,-28.53,0,*7A
1497801626.56,62283,17.38,74480.8,7.73,-28.97,-28.79,0,*73
1497801627.78,62284,17.38,74486.8,7.75,-28.47,-28.31,0,*73
1497801629.03,62285,17.38,74482.8,7.75,-28.47,-28.25,0,*77
1497801630.26,62286,17.38,74486.5,7.75,-28.47,-28.43,0,*74
1497801631.51,62287,17.38,74488.0,7.75,-28.47,-28.25,0,*75
1497801632.76,62288,17.38,74488.0,7.75,-29.13,-28.91,0,*75
1497801633.97,62289,17.38,74490.3,7.75,-29.13,-28.97,0,*72
1497801635.22,62290,17.38,74490.8,7.75,-28.75,-28.47,0,*76
1497801636.44,62291,17.38,74492.5,7.75,-28.09,-27.93,0,*7A
1497801637.69,62292,17.38,74490.5,7.75,-28.91,-28.63,0,*78
1497801638.95,62293,17.38,74492.5,7.77,-28.25,-28.15,0,*75
1497801640.2,62294,17.38,74492.3,7.79,-28.79,-28.59,0,*7D
1497801641.45,62295,17.38,74490.8,7.77,-29.29,-29.23,0,*7A
1497801642.69,62296,17.38,74490.8,7.77,-29.13,-28.97,0,*7E
1497801643.97,62297,17.38,74490.8,7.77,-28.91,-28.75,0,*78
1497801645.19,62298,17.38,74484.8,7.79,-29.23,-29.17,0,*74
1497801646.48,62299,17.38,74490.0,7.77,-29.35,-28.91,0,*73
1497801647.72,62300,17.38,74484.0,7.77,-29.23,-29.13,0,*7E
1497801649.0,62301,17.38,74486.0,7.77,-28.79,-28.63,0,*77
1497801650.2,62302,17.38,74484.5,7.79,-29.07,-29.07,0,*71
1497801651.42,62303,17.38,74484.8,7.79,-28.75,-28.37,0,*76
1497801652.67,62304,17.38,74486.5,7.81,-29.13,-29.01,0,*73
1497801653.94,62305,17.38,74484.0,7.77,-29.13,-28.91,0,*73
1497801655.19,62306,17.38,74480.5,7.79,-28.43,-28.21,0,*71
1497801656.41,62307,17.38,74482.0,7.79,-29.57,-29.29,0,*7D
1497801657.66,62308,17.38,74482.3,7.79,-29.89,-29.73,0,*7E
1497801658.88,62309,17.38,74480.3,7.79,-29.79,-29.73,0,*70
1497801660.1,62310,17.38,74478.0,7.79,-29.61,-29.39,0,*7F
1497801661.33,62311,17.38,74466.8,7.81,-29.17,-28.97,0,*7D
1497801662.53,62312,17.38,74468.3,7.79,-28.85,-28.69,0,*72
1497801663.75,62313,17.38,74472.3,7.79,-29.23,-29.01,0,*71
1497801665.0,62314,17.38,74470.3,7.79,-29.01,-28.91,0,*7E
1497801666.26,62315,17.38,74470.0,7.79,-28.25,-28.05,0,*75
1497801667.46,62316,17.44,74470.3,7.79,-28.53,-28.37,0,*76
1497801668.69,62317,17.38,74472.0,7.79,-28.53,-28.21,0,*70
1497801669.91,62318,17.38,74472.8,7.79,-29.07,-28.91,0,*74
1497801671.15,62319,17.38,74476.3,7.81,-30.27,-30.17,0,*7F
1497801672.41,62320,17.44,74478.3,7.81,-30.73,-30.61,0,*75
1497801673.66,62321,17.38,74472.3,7.77,-30.01,-29.83,0,*7C
1497801674.93,62322,17.38,74468.5,7.77,-29.29,-29.13,0,*74
1497801676.18,62323,17.44,74478.0,7.79,-28.91,-28.75,0,*78
1497801677.43,62324,17.38,74474.8,7.79,-28.25,-28.09,0,*7B
1497801678.65,62325,17.38,74468.8,7.79,-28.21,-27.89,0,*79
1497801679.85,62326,17.38,74472.0,7.79,-27.67,-27.51,0,*72
1497801681.13,62327,17.38,74468.0,7.83,-28.47,-28.21,0,*73
1497801682.36,62328,17.38,74474.0,7.83,-28.85,-28.69,0,*7E
1497801683.63,62329,17.38,74480.5,7.83,-29.51,-29.17,0,*7F
1497801684.84,62330,17.38,74480.0,7.81,-28.97,-28.69,0,*76
1497801686.1,62331,17.38,74480.5,7.81,-28.79,-28.63,0,*7D
1497801687.37,62332,17.38,74480.5,7.83,-29.35,-29.13,0,*73
1497801688.62,62333,17.38,74478.5,7.83,-29.13,-28.97,0,*7B
1497801689.82,62334,17.38,74472.5,7.81,-28.97,-28.69,0,*72
1497801691.07,62335,17.38,74476.5,7.83,-28.69,-28.47,0,*7C
1497801692.32,62336,17.38,74476.8,7.83,-29.01,-28.97,0,*7D
1497801693.57,62337,17.38,74476.8,7.83,-30.27,-30.05,0,*72
1497801694.82,62338,17.38,74472.3,7.81,-29.89,-29.73,0,*7A
1497801696.04,62339,17.44,74472.8,7.81,-30.39,-30.27,0,*71
1497801697.29,62340,17.38,74474.5,7.79,-31.51,-31.57,0,*71
1497801698.53,62341,17.44,74476.0,7.79,-31.39,-31.57,0,*7E
1497801699.78,62342,17.38,74474.8,7.77,-30.33,-30.17,0,*7D
1497801701.03,62343,17.38,74478.0,7.77,-29.45,-29.29,0,*70
1497801702.3,62344,17.38,74472.5,7.77,-29.29,-29.13,0,*74
1497801703.52,62345,17.38,74474.3,7.77,-29.83,-29.79,0,*79
1497801704.78,62346,17.38,74478.0,7.77,-31.61,-31.79,0,*76
1497801706.03,62347,17.38,74476.3,7.73,-30.33,-30.17,0,*7C
1497801707.29,62348,17.38,74476.3,7.73,-29.17,-29.13,0,*71
1497801708.56,62349,17.38,74476.5,7.73,-29.01,-28.79,0,*7A
1497801709.75,62350,17.38,74474.0,7.75,-29.23,-28.97,0,*74
1497801710.94,62351,17.38,74476.0,7.75,-29.23,-29.07,0,*7D
1497801712.17,62352,17.38,74478.5,7.77,-29.23,-29.07,0,*7C
1497801713.41,62353,17.38,74474.8,7.75,-29.51,-29.29,0,*76
1497801714.66,62354,17.38,74472.3,7.75,-29.35,-29.29,0,*73
1497801715.88,62355,17.38,74472.5,7.75,-29.35,-29.23,0,*78
1497801717.08,62356,17.38,74474.3,7.75,-29.23,-28.97,0,*72
1497801718.32,62357,17.38,74474.3,7.75,-28.63,-28.47,0,*7B
1497801719.58,62358,17.38,74472.8,7.75,-28.25,-28.05,0,*70
1497801720.81,62359,17.38,74478.0,7.77,-29.61,-29.45,0,*77
1497801722.03,62360,17.38,74476.5,7.77,-29.83,-29.79,0,*7E
1497801723.29,62361,17.38,74480.8,7.77,-30.89,-30.83,0,*70
1497801724.54,62362,17.38,74478.8,7.75,-30.51,-30.39,0,*75
1497801725.81,62363,17.38,74482.3,7.73,-30.77,-30.73,0,*78
1497801727.06,62364,17.38,74482.8,7.73,-31.29,-30.95,0,*7D
1497801728.31,62365,17.44,74480.8,7.73,-31.29,-31.11,0,*71
1497801729.55,62366,17.38,74478.5,7.67,-30.05,-30.05,0,*7C
1497801730.8,62367,17.38,74476.5,7.67,-30.05,-29.89,0,*71
1497801731.99,62368,17.38,74474.3,7.67,-29.95,-29.79,0,*70
1497801733.19,62369,17.38,74476.0,7.67,-29.95,-29.79,0,*71
1497801734.41,62370,17.38,74478.0,7.67,-29.45,-29.39,0,*70
1497801735.63,62371,17.38,74476.5,7.67,-30.45,-30.51,0,*7F
1497801736.88,62372,17.44,74480.8,7.67,-31.11,-30.95,0,*74
1497801738.1,62373,17.38,74478.0,7.65,-30.11,-29.95,0,*7E
1497801739.32,62374,17.38,74476.3,7.65,-29.83,-29.79,0,*78
1497801740.57,62375,17.38,74480.8,7.65,-30.01,-29.95,0,*79
1497801741.77,62376,17.38,74478.5,7.63,-29.79,-29.61,0,*70
1497801742.98,62377,17.38,74480.3,7.63,-28.97,-28.75,0,*74
1497801744.18,62378,17.38,74476.8,7.63,-29.23,-29.23,0,*77
1497801745.39,62379,17.38,74478.5,7.63,-29.29,-29.23,0,*7C
1497801746.63,62380,17.38,74480.3,7.65,-29.13,-29.07,0,*73
1497801747.86,62381,17.38,74480.0,7.65,-29.83,-29.67,0,*7D
1497801749.08,62382,17.38,74476.8,7.67,-28.85,-28.75,0,*79
1497801750.29,62383,17.38,74476.8,7.67,-28.85,-28.69,0,*75
1497801751.53,62384,17.38,74474.3,7.67,-29.01,-28.75,0,*72
1497801752.77,62385,17.38,74474.8,7.67,-29.17,-29.17,0,*71
1497801754.02,62386,17.38,74474.0,7.67,-29.89,-29.73,0,*77
1497801755.28,62387,17.38,74478.8,7.67,-30.77,-30.61,0,*74
1497801756.5,62388,17.38,74480.3,7.65,-30.33,-30.33,0,*7E
1497801757.75,62389,17.38,74476.0,7.63,-29.39,-29.29,0,*78
1497801758.99,62390,17.38,74478.5,7.65,-29.23,-29.13,0,*74
1497801760.21,62391,17.44,74480.0,7.65,-29.07,-28.97,0,*7E
1497801761.49,62392,17.38,74480.3,7.65,-28.63,-28.59,0,*7C
1497801762.73,62393,17.38,74482.3,7.65,-28.97,-28.79,0,*74
1497801764.01,62394,17.38,74484.0,7.65,-29.39,-29.29,0,*72
1497801765.23,62395,17.44,74486.3,7.65,-28.97,-28.97,0,*72
1497801766.46,62396,17.38,74484.8,7.67,-29.01,-28.85,0,*7E
1497801767.7,62397,17.38,74484.3,7.67,-29.01,-29.01,0,*72
1497801768.93,62398,17.38,74488.5,7.67,-28.69,-28.59,0,*7E
1497801770.13,62399,17.38,74484.0,7.67,-29.07,-28.85,0,*77
1497801771.37,62400,17.38,74484.5,7.71,-29.01,-28.79,0,*72
1497801772.63,62401,17.44,74488.5,7.71,-28.21,-28.09,0,*77
1497801773.85,62402,17.44,74490.5,7.71,-28.15,-28.09,0,*73
1497801775.05,62403,17.38,74488.0,7.71,-28.37,-28.37,0,*7F
1497801776.27,62404,17.38,74488.5,7.71,-28.21,-28.37,0,*7F
1497801777.5,62405,17.38,74486.0,7.71,-28.79,-28.69,0,*78
1497801778.75,62406,17.38,74488.5,7.75,-28.59,-28.59,0,*7E
1497801779.97,62407,17.38,74484.8,7.75,-28.43,-28.31,0,*7A
1497801781.25,62408,17.38,74484.3,7.73,-28.79,-28.63,0,*7D
1497801782.52,62409,17.44,74494.3,7.73,-29.01,-29.01,0,*77
1497801783.74,62410,17.44,74490.0,7.75,-28.43,-28.15,0,*7A
1497801784.99,62411,17.38,74490.3,7.75,-28.79,-28.91,0,*7E
1497801786.24,62412,17.38,74486.8,7.75,-28.79,-28.59,0,*79
1497801787.47,62413,17.38,74484.5,7.75,-29.61,-29.51,0,*79
1497801788.67,62414,17.38,74482.0,7.75,-28.31,-28.15,0,*7B
1497801789.88,62415,17.38,74480.5,7.75,-29.13,-29.07,0,*79
1497801791.1,62416,17.44,74486.3,7.75,-30.33,-30.39,0,*75
1497801792.3,62417,17.38,74482.3,7.75,-29.67,-29.61,0,*78
1497801793.52,62418,17.44,74480.0,7.73,-28.85,-28.69,0,*75
1497801794.8,62419,17.38,74482.8,7.77,-28.59,-28.59,0,*72
1497801796.0,62420,17.44,74484.8,7.75,-29.95,-30.11,0,*7E
1497801797.25,62421,17.38,74480.0,7.73,-29.73,-29.67,0,*78
1497801798.5,62422,17.38,74482.3,7.73,-29.57,-29.51,0,*78
1497801799.78,62423,17.38,74486.8,7.73,-29.51,-29.35,0,*7D
1497801801.06,62424,17.38,74488.3,7.73,-29.35,-29.35,0,*78
1497801802.32,62425,17.38,74474.5,7.73,-29.57,-29.51,0,*7F
1497801803.57,62426,17.38,74476.0,7.73,-29.29,-28.85,0,*7D
1497801804.83,62427,17.38,74476.5,7.73,-29.17,-29.13,0,*7F
1497801806.11,62428,17.44,74482.8,7.73,-29.51,-29.39,0,*7A
1497801807.35,62429,17.44,74480.3,7.73,-29.73,-29.57,0,*73
1497801808.59,62430,17.44,74482.3,7.73,-28.85,-28.79,0,*7E
1497801809.83,62431,17.38,74478.0,7.73,-28.97,-28.79,0,*7C
1497801811.05,62432,17.38,74482.0,7.73,-28.97,-28.97,0,*7F
1497801812.3,62433,17.38,74480.5,7.73,-28.85,-28.79,0,*7D
1497801813.5,62434,17.38,74482.0,7.71,-28.85,-28.69,0,*79
1497801814.7,62435,17.38,74480.8,7.71,-29.67,-29.57,0,*79
1497801815.94,62436,17.44,74486.0,7.73,-28.47,-28.37,0,*7C
1497801817.16,62437,17.44,74484.8,7.71,-28.47,-28.53,0,*7D
1497801818.36,62438,17.38,74486.3,7.71,-28.85,-28.69,0,*75
1497801819.63,62439,17.38,74484.3,7.73,-27.99,-27.99,0,*74
1497801820.87,62440,17.38,74484.0,7.75,-28.47,-28.43,0,*78
1497801822.11,62441,17.44,74490.8,7.75,-28.47,-28.47,0,*7D
1497801823.36,62442,17.38,74488.3,7.75,-28.91,-28.79,0,*78
1497801824.63,62443,17.38,74488.0,7.73,-29.01,-29.01,0,*79
1497801825.87,62444,17.38,74486.0,7.73,-29.13,-28.97,0,*73
1497801827.09,62445,17.44,74490.5,7.73,-28.97,-28.85,0,*7C
1497801828.32,62446,17.38,74490.3,7.75,-28.15,-28.05,0,*7B
1497801829.52,62447,17.38,74486.3,7.75,-28.31,-28.31,0,*7B
1497801830.71,62448,17.38,74486.8,7.75,-29.07,-29.23,0,*72
1497801831.9,62449,17.38,74486.5,7.75,-29.23,-29.23,0,*75
1497801833.1,62450,17.38,74488.5,7.75,-28.31,-28.31,0,*7D
1497801834.33,62451,17.38,74486.8,7.77,-27.89,-27.71,0,*79
1497801835.61,62452,17.44,74488.8,7.77,-27.61,-27.61,0,*7D
1497801836.89,62453,17.38,74486.8,7.77,-27.39,-27.39,0,*7C
1497801838.08,62454,17.44,74490.0,7.79,-27.55,-27.51,0,*71
1497801839.29,62455,17.44,74490.0,7.81,-27.67,-27.67,0,*73
1497801840.5,62456,17.38,74484.8,7.81,-28.97,-28.85,0,*73
1497801841.73,62457,17.38,74488.3,7.81,-28.63,-28.53,0,*72
1497801842.97,62458,17.44,74490.0,7.81,-28.21,-28.15,0,*79
1497801844.2,62459,17.38,74486.8,7.81,-27.77,-27.61,0,*78
1497801845.41,62460,17.44,74488.0,7.81,-27.77,-27.67,0,*74
1497801846.64,62461,17.38,74486.8,7.83,-27.77,-27.67,0,*77
1497801847.88,62462,17.44,74490.0,7.83,-27.99,-27.93,0,*7F
1497801849.14,62463,17.44,74488.8,7.83,-27.77,-27.61,0,*73
1497801850.37,62464,17.38,74484.3,7.85,-28.15,-28.09,0,*78
1497801851.62,62465,17.44,74488.8,7.85,-28.25,-28.09,0,*7A
1497801852.88,62466,17.44,74490.0,7.87,-27.77,-27.61,0,*72
1497801854.11,62467,17.44,74490.0,7.87,-28.31,-28.15,0,*72
1497801855.34,62468,17.44,74488.8,7.87,-27.71,-27.55,0,*7D
1497801856.62,62469,17.44,74488.3,7.87,-28.47,-28.47,0,*7A
1497801857.85,62470,17.38,74486.5,7.87,-28.31,-28.31,0,*72
1497801859.11,62471,17.38,74486.0,7.87,-28.15,-28.09,0,*7E
1497801860.38,62472,17.44,74486.5,7.87,-28.47,-28.47,0,*70
1497801861.64,62473,17.44,74486.3,7.89,-28.09,-28.05,0,*73
1497801862.86,62474,17.38,74484.3,7.89,-27.89,-27.83,0,*72
1497801864.09,62475,17.38,74484.0,7.93,-27.83,-27.67,0,*78
1497801865.32,62476,17.44,74486.3,7.89,-28.75,-28.69,0,*77
1497801866.54,62477,17.38,74486.0,7.89,-29.13,-29.07,0,*7E
1497801867.77,62478,17.38,74486.0,7.89,-28.37,-28.21,0,*73
1497801869.03,62479,17.44,74490.8,7.93,-27.83,-27.61,0,*72
1497801870.26,62480,17.38,74488.5,7.93,-27.45,-27.29,0,*72
1497801871.49,62481,17.44,74490.0,7.93,-27.35,-27.29,0,*74
1497801872.73,62482,17.38,74484.3,7.93,-27.61,-27.51,0,*79
1497801873.96,62483,17.38,74486.5,7.97,-27.61,-27.55,0,*78
1497801875.22,62484,17.38,74488.5,7.97,-27.61,-27.45,0,*7E
1497801876.45,62485,17.38,74484.0,7.97,-27.93,-28.09,0,*75
1497801877.7,62486,17.38,74486.0,7.95,-28.85,-28.79,0,*7B
1497801878.94,62487,17.38,74484.8,7.95,-28.53,-28.31,0,*7D
1497801880.17,62488,17.44,74484.0,7.95,-28.15,-28.15,0,*76
1497801881.43,62489,17.38,74486.0,7.97,-27.61,-27.39,0,*78
1497801882.69,62490,17.44,74488.8,7.97,-28.25,-28.25,0,*7D
1497801883.97,62491,17.38,74484.5,7.95,-28.21,-27.99,0,*72
1497801885.22,62492,17.38,74486.5,7.99,-27.83,-27.71,0,*7C
1497801886.44,62493,17.44,74488.3,7.99,-27.93,-27.77,0,*7A
1497801887.67,62494,17.44,74490.5,8.01,-28.05,-27.93,0,*79
1497801888.92,62495,17.44,74486.8,7.99,-28.25,-28.15,0,*75
1497801890.17,62496,17.44,74488.0,7.99,-28.15,-27.99,0,*7E
1497801891.4,62497,17.38,74486.5,8.01,-28.37,-28.43,0,*79
1497801892.67,62498,17.38,74484.8,7.99,-28.75,-28.75,0,*7B
1497801893.89,62499,17.44,74490.5,8.01,-28.75,-28.69,0,*79
1497801895.14,62500,17.44,74484.8,7.99,-28.47,-28.31,0,*7A
1497801896.42,62501,17.38,74484.8,7.99,-28.91,-28.79,0,*7C
1497801897.69,62502,17.38,74484.8,7.99,-28.75,-28.43,0,*7C
1497801898.89,62503,17.44,74484.0,8.01,-28.53,-28.37,0,*74
1497801900.16,62504,17.38,74484.5,7.99,-28.47,-28.47,0,*7F
1497801901.44,62505,17.44,74484.5,7.99,-28.25,-28.09,0,*70
1497801902.71,62506,17.38,74480.5,7.99,-29.13,-29.01,0,*7E
1497801903.98,62507,17.44,74482.0,7.99,-28.79,-28.75,0,*70
1497801905.22,62508,17.44,74480.8,7.99,-28.97,-28.79,0,*73
1497801906.44,62509,17.44,74482.5,7.99,-29.61,-29.61,0,*72
1497801907.67,62510,17.44,74482.0,8.01,-29.45,-29.29,0,*7E
1497801908.89,62511,17.44,74480.0,7.97,-28.97,-29.01,0,*7B
1497801910.15,62512,17.44,74484.3,7.99,-29.61,-29.51,0,*7B
1497801911.41,62513,17.44,74482.5,7.95,-29.57,-29.51,0,*73
1497801912.66,62514,17.44,74482.8,7.95,-28.85,-28.79,0,*71
1497801913.92,62515,17.44,74484.3,7.95,-28.69,-28.63,0,*79
1497801915.17,62516,17.44,74484.5,7.95,-29.23,-29.17,0,*77
1497801916.42,62517,17.44,74486.3,7.95,-29.07,-29.17,0,*70
1497801917.67,62518,17.38,74480.8,7.95,-29.23,-29.17,0,*79
1497801918.92,62519,17.44,74482.8,7.95,-29.01,-28.97,0,*71
1497801920.15,62520,17.38,74482.3,7.95,-28.69,-28.69,0,*75
1497801921.38,62521,17.38,74482.8,7.95,-28.31,-28.15,0,*72
1497801922.63,62522,17.38,74480.5,7.95,-28.63,-28.37,0,*76
1497801923.85,62523,17.44,74482.8,7.97,-27.83,-27.71,0,*79
1497801925.11,62524,17.38,74476.8,7.97,-27.99,-27.99,0,*73
1497801926.33,62525,17.44,74478.3,7.95,-29.07,-29.07,0,*70
1497801927.57,62526,17.44,74476.3,7.97,-29.45,-29.35,0,*76
1497801928.82,62527,17.44,74478.3,7.95,-29.67,-29.73,0,*77
1497801930.07,62528,17.38,74478.5,7.95,-30.01,-29.83,0,*7F
1497801931.3,62529,17.44,74482.5,7.89,-30.11,-30.05,0,*74
1497801932.53,62530,17.38,74482.0,7.89,-29.89,-29.79,0,*76
1497801933.76,62531,17.38,74482.8,7.89,-29.07,-28.91,0,*76
1497801935.01,62532,17.44,74488.0,7.89,-28.59,-28.43,0,*70
1497801936.26,62533,17.38,74486.8,7.93,-27.99,-27.83,0,*7A
1497801937.5,62534,17.38,74482.0,7.93,-28.59,-28.31,0,*78
1497801938.7,62535,17.44,74480.3,7.93,-28.69,-28.53,0,*7E
1497801939.94,62536,17.38,74482.8,7.93,-28.15,-28.05,0,*75
1497801941.19,62537,17.44,74484.3,7.93,-28.47,-28.21,0,*75
1497801942.45,62538,17.38,74480.3,7.93,-28.63,-28.63,0,*7A
1497801943.69,62539,17.44,74484.0,7.93,-29.57,-29.51,0,*7D
1497801944.94,62540,17.44,74482.5,7.93,-29.35,-29.17,0,*75
1497801946.15,62541,17.44,74480.5,7.89,-29.95,-29.95,0,*7F
1497801947.35,62542,17.38,74482.8,7.89,-29.79,-29.79,0,*7C
1497801948.57,62543,17.44,74482.0,7.89,-29.13,-29.07,0,*78
1497801949.79,62544,17.44,74482.5,7.89,-29.23,-29.13,0,*79
1497801951.02,62545,17.44,74484.5,7.89,-29.29,-29.23,0,*71
1497801952.24,62546,17.38,74482.8,7.89,-30.11,-30.05,0,*7D
1497801953.47,62547,17.44,74486.0,7.87,-29.79,-29.61,0,*7E
1497801954.7,62548,17.44,74482.5,7.85,-29.45,-29.29,0,*70
1497801955.92,62549,17.44,74482.8,7.85,-29.13,-29.07,0,*7E
1497801957.13,62550,17.44,74482.0,7.85,-29.95,-29.83,0,*74
1497801958.38,62551,17.44,74480.0,7.85,-30.51,-30.51,0,*72
1497801959.63,62552,17.44,74480.5,7.85,-30.55,-30.51,0,*75
1497801960.85,62553,17.38,74478.5,7.83,-30.23,-30.23,0,*76
1497801962.09,62554,17.44,74482.3,7.81,-29.57,-29.51,0,*75
1497801963.32,62555,17.44,74480.0,7.81,-30.27,-30.17,0,*71
1497801964.55,62556,17.38,74478.5,7.81,-30.39,-30.27,0,*7E
1497801965.8,62557,17.44,74480.3,7.81,-30.39,-30.17,0,*7C
1497801967.01,62558,17.44,74486.3,7.81,-29.57,-29.57,0,*7F
1497801968.26,62559,17.38,74484.0,7.81,-30.05,-30.01,0,*7A
1497801969.54,62560,17.44,74488.5,7.77,-28.79,-28.63,0,*76
1497801970.8,62561,17.44,74490.3,7.79,-28.25,-28.21,0,*76
1497801972.05,62562,17.38,74484.8,7.79,-28.05,-27.83,0,*70
1497801973.28,62563,17.44,74488.0,7.81,-28.15,-28.05,0,*76
1497801974.51,62564,17.38,74480.0,7.83,-28.97,-28.85,0,*71
1497801975.77,62565,17.38,74480.8,7.81,-29.89,-29.89,0,*71
1497801977.02,62566,17.38,74478.0,7.81,-30.61,-30.55,0,*75
1497801978.25,62567,17.44,74482.3,7.81,-30.61,-30.45,0,*75
1497801979.49,62568,17.38,74478.3,7.77,-30.67,-30.67,0,*75
1497801980.74,62569,17.44,74480.3,7.77,-30.73,-30.67,0,*71
1497801982.0,62570,17.38,74480.3,7.77,-30.01,-29.83,0,*7E
1497801983.23,62571,17.44,74484.5,7.77,-29.67,-29.61,0,*7B
1497801984.46,62572,17.38,74482.8,7.77,-29.61,-29.45,0,*78
1497801985.66,62573,17.38,74480.3,7.75,-29.95,-29.83,0,*7A
1497801986.9,62574,17.44,74482.8,7.73,-30.01,-29.83,0,*7E
1497801988.17,62575,17.44,74488.0,7.73,-29.39,-29.29,0,*7C
1497801989.42,62576,17.44,74488.5,7.75,-28.79,-28.75,0,*74
1497801990.66,62577,17.44,74488.5,7.73,-28.63,-28.53,0,*7C
1497801991.94,62578,17.44,74484.8,7.77,-28.91,-28.79,0,*72
1497801993.22,62579,17.44,74484.0,7.77,-28.63,-28.63,0,*75
1497801994.5,62580,17.38,74480.5,7.77,-28.47,-28.25,0,*77
1497801995.78,62581,17.44,74484.3,7.77,-29.29,-29.35,0,*7F
1497801997.01,62582,17.38,74480.3,7.77,-29.95,-29.95,0,*71
1497801998.23,62583,17.44,74482.0,7.77,-30.11,-30.11,0,*70
1497801999.42,62584,17.44,74480.8,7.75,-29.83,-29.79,0,*70
1497802000.69,62585,17.44,74484.3,7.73,-30.39,-30.39,0,*72
1497802001.96,62586,17.44,74484.5,7.73,-30.01,-29.89,0,*79
1497802003.21,62587,17.44,74480.5,7.73,-28.79,-28.85,0,*73
1497802004.45,62588,17.44,74482.0,7.73,-30.23,-30.05,0,*7B
1497802005.72,62589,17.38,74478.3,7.73,-29.29,-29.01,0,*74
1497802006.95,62590,17.44,74478.0,7.73,-28.85,-28.85,0,*76
1497802008.18,62591,17.44,74480.8,7.75,-29.57,-29.51,0,*77
1497802009.45,62592,17.44,74480.8,7.73,-30.17,-30.05,0,*77
1497802010.69,62593,17.44,74476.8,7.73,-30.23,-30.39,0,*7E
1497802011.93,62594,17.44,74476.3,7.71,-30.01,-30.05,0,*74
1497802013.16,62595,17.44,74478.0,7.67,-30.67,-30.77,0,*77
1497802014.41,62596,17.44,74478.0,7.71,-30.01,-30.05,0,*76
1497802015.62,62597,17.44,74476.5,7.67,-30.05,-30.11,0,*71
1497802016.84,62598,17.44,74480.5,7.67,-30.39,-30.23,0,*70
1497802018.05,62599,17.44,74480.0,7.67,-29.73,-29.79,0,*70
1497802019.3,62600,17.44,74482.0,7.65,-29.23,-29.13,0,*78
1497802020.55,62601,17.44,74484.8,7.65,-28.97,-28.91,0,*7C
1497802021.77,62602,17.44,74480.3,7.65,-29.61,-29.61,0,*79
1497802023.01,62603,17.44,74482.5,7.65,-29.13,-29.07,0,*7D
1497802024.21,62604,17.44,74482.3,7.63,-29.79,-29.83,0,*7C
1497802025.44,62605,17.44,74484.8,7.63,-30.17,-30.27,0,*7B
1497802026.64,62606,17.38,74478.5,7.63,-30.27,-30.27,0,*7B
1497802027.84,62607,17.44,74484.5,7.63,-29.83,-29.83,0,*7A
1497802029.05,62608,17.44,74482.8,7.63,-29.67,-29.67,0,*75
1497802030.26,62609,17.38,74480.0,7.63,-29.23,-29.13,0,*77
1497802031.49,62610,17.44,74482.0,7.63,-29.45,-29.39,0,*77
1497802032.72,62611,17.44,74482.5,7.63,-29.67,-29.51,0,*78
1497802033.96,62612,17.44,74480.3,7.61,-30.01,-30.11,0,*7D
1497802035.2,62613,17.44,74482.0,7.63,-30.55,-30.55,0,*7F
1497802036.43,62614,17.44,74480.3,7.63,-31.01,-30.89,0,*79
1497802037.65,62615,17.44,74482.5,7.59,-31.05,-31.11,0,*75
1497802038.9,62616,17.44,74482.5,7.59,-30.51,-30.55,0,*77
1497802040.15,62617,17.44,74484.5,7.57,-30.55,-30.67,0,*7D
1497802041.39,62618,17.44,74476.3,7.57,-30.39,-30.45,0,*78
1497802042.63,62619,17.44,74476.8,7.57,-30.45,-30.39,0,*79
1497802043.87,62620,17.44,74482.5,7.55,-31.23,-31.17,0,*7D
1497802045.08,62621,17.44,74482.5,7.55,-29.67,-29.67,0,*7B
1497802046.29,62622,17.44,74480.3,7.55,-29.67,-29.67,0,*78
1497802047.51,62623,17.44,74486.3,7.55,-29.23,-29.13,0,*7A
1497802048.77,62624,17.44,74484.5,7.55,-28.75,-28.63,0,*79
1497802050.02,62625,17.44,74480.0,7.57,-28.59,-28.69,0,*7E
1497802051.27,62626,17.44,74482.0,7.55,-29.29,-29.29,0,*7C
1497802052.47,62627,17.44,74478.3,7.55,-29.67,-29.79,0,*72
1497802053.67,62628,17.44,74476.5,7.55,-29.67,-29.79,0,*7D
1497802054.9,62629,17.44,74476.0,7.57,-29.57,-29.61,0,*74
1497802056.14,62630,17.44,74476.5,7.55,-30.27,-30.17,0,*78
1497802057.39,62631,17.44,74480.5,7.55,-29.39,-29.29,0,*7B
1497802058.62,62632,17.44,74476.8,7.55,-28.91,-28.97,0,*7F
1497802059.88,62633,17.44,74482.8,7.55,-28.91,-28.79,0,*7E
1497802061.08,62634,17.44,74480.0,7.55,-28.97,-28.97,0,*7F
1497802062.33,62635,17.38,74478.0,7.55,-28.43,-28.43,0,*7E
1497802063.61,62636,17.38,74476.3,7.57,-28.21,-28.21,0,*7F
1497802064.88,62637,17.44,74478.8,7.57,-28.59,-28.75,0,*70
1497802066.1,62638,17.44,74482.5,7.57,-28.31,-28.37,0,*77
1497802067.32,62639,17.44,74478.3,7.59,-28.97,-29.01,0,*70
1497802068.55,62640,17.44,74478.5,7.59,-28.79,-28.85,0,*73
1497802069.81,62641,17.44,74476.8,7.59,-29.73,-29.89,0,*74
1497802071.07,62642,17.44,74480.3,7.59,-29.35,-29.35,0,*72
1497802072.29,62643,17.44,74480.8,7.59,-29.29,-29.45,0,*79
1497802073.55,62644,17.44,74482.5,7.57,-29.23,-29.35,0,*7D
1497802074.77,62645,17.44,74484.5,7.57,-28.53,-28.53,0,*7B
1497802076.01,62646,17.44,74484.5,7.57,-28.37,-28.31,0,*7E
1497802077.21,62647,17.44,74486.8,7.59,-28.37,-28.37,0,*77
1497802078.46,62648,17.44,74484.0,7.59,-28.25,-28.09,0,*76
1497802079.69,62649,17.44,74486.0,7.59,-28.15,-28.25,0,*7A
1497802080.97,62650,17.44,74484.5,7.61,-27.99,-27.99,0,*7A
1497802082.19,62651,17.44,74488.3,7.63,-28.31,-28.43,0,*7C
1497802083.41,62652,17.44,74488.0,7.63,-28.31,-28.47,0,*7B
1497802084.69,62653,17.44,74492.5,7.65,-28.59,-28.63,0,*74
1497802085.88,62654,17.44,74488.0,7.63,-29.07,-28.97,0,*74
1497802087.08,62655,17.44,74492.5,7.63,-29.07,-29.07,0,*7D
1497802088.32,62656,17.44,74490.8,7.63,-28.59,-28.47,0,*71
1497802089.54,62657,17.44,74492.8,7.65,-28.97,-29.07,0,*71
1497802090.74,62658,17.44,74484.0,7.63,-29.45,-29.45,0,*70
1497802091.94,62659,17.44,74486.0,7.63,-29.07,-29.07,0,*71
1497802093.18,62660,17.44,74482.0,7.63,-28.47,-28.63,0,*7D
1497802094.43,62661,17.44,74482.8,7.63,-28.63,-28.79,0,*71
1497802095.68,62662,17.44,74476.3,7.63,-29.39,-29.39,0,*79
1497802096.88,62663,17.44,74478.3,7.63,-29.45,-29.45,0,*78
1497802098.13,62664,17.44,74482.5,7.65,-29.29,-29.45,0,*73
1497802099.36,62665,17.44,74482.3,7.63,-30.17,-30.33,0,*78
1497802100.61,62666,17.44,74484.8,7.61,-31.05,-31.11,0,*7A
1497802101.86,62667,17.44,74484.3,7.59,-30.01,-30.05,0,*71
1497802103.08,62668,17.44,74488.0,7.59,-29.73,-29.83,0,*75